GFSCGP_sfc_dewp_132.txt.gz
Dewpoint
20 14 16 15 14 12 31 30 32 33 28 29 29 32 35 40 37 35 35 32 35 38 40 42 47 51 53 58 61 65 67 72 74 72 71 71 71 72 71 72 75 73 72 73
15 12 13 12 11 12 18 23 19 19 31 22 22 24 25 28 31 38 33 33 35 36 39 46 50 53 56 59 62 65 66 70 74 73 73 72 71 68 70 70 72 74 73 73
12 12 14 12 11 15 14 13 15 12 15 17 20 22 24 25 26 37 37 33 35 40 40 46 48 55 57 58 60 63 68 70 72 74 74 75 74 74 72 71 74 73 72 72
12 11 11 11 11 12 13 12 11 14 16 14 20 15 25 26 26 34 36 32 34 37 42 48 55 57 59 59 60 61 63 70 68 74 72 75 71 68 70 68 70 72 73 73
12 10 8 10 10 12 13 12 14 15 15 17 16 14 14 26 24 24 29 29 35 39 42 44 49 55 58 62 63 66 68 70 71 74 75 73 72 71 71 70 76 75 75 74
10 10 8 9 9 10 13 17 16 16 16 16 17 13 13 18 25 27 28 35 38 37 42 44 50 55 57 60 63 66 68 70 70 70 71 72 72 72 71 71 71 73 74 73
11 10 9 10 10 12 15 23 18 13 13 13 17 15 20 23 26 26 29 39 40 37 41 43 46 49 54 56 60 61 64 64 66 66 65 66 66 71 71 71 69 70 71 71
10 14 9 16 16 15 16 21 16 15 13 10 14 16 16 24 25 30 38 39 40 41 42 44 45 48 49 54 57 57 58 59 60 62 62 64 65 61 63 65 67 66 65 61
14 17 15 15 16 16 17 16 19 22 24 21 16 27 28 30 34 36 36 39 40 44 45 44 45 49 50 53 56 56 58 58 59 59 61 62 62 63 62 63 65 62 63 61
22 17 16 15 16 16 18 17 16 21 25 27 22 26 26 30 31 35 37 40 43 43 41 41 41 49 51 53 55 57 55 55 56 57 58 57 60 59 61 61 61 62 63 62
27 28 25 20 19 17 19 26 26 23 21 25 29 35 34 34 34 35 37 37 40 39 37 38 40 44 44 47 47 53 52 51 53 55 56 58 57 57 59 59 59 60 61 61
28 34 25 22 22 21 20 21 30 30 26 26 34 34 45 38 38 39 35 37 37 38 38 37 37 40 41 44 43 44 50 48 50 51 52 55 55 56 58 58 58 59 58 57
32 37 34 28 33 26 23 26 25 29 35 30 30 37 39 37 41 42 38 37 37 38 37 37 37 37 39 39 40 40 44 45 46 47 47 53 56 56 57 57 57 56 55 54
42 35 36 35 33 31 26 27 28 33 39 31 28 35 37 35 38 41 38 36 34 38 36 34 36 36 37 39 39 41 43 45 46 45 46 50 53 54 53 53 53 53 52 51
38 32 34 36 40 34 31 26 23 26 28 32 30 33 35 40 40 32 30 29 29 30 31 33 37 39 41 44 44 43 43 45 47 46 46 49 50 50 50 50 51 51 51 49
39 38 39 35 32 28 29 31 30 28 28 32 33 34 37 37 25 24 27 30 32 32 32 34 36 38 40 42 44 45 46 46 46 45 44 45 45 45 47 48 49 50 49 49
41 41 40 36 37 28 25 25 22 21 22 23 20 21 23 28 28 29 31 32 33 34 34 35 37 41 46 46 48 47 46 46 45 44 43 42 43 41 42 43 45 46 49 50
41 41 42 32 36 22 24 25 22 19 19 19 20 22 26 28 29 30 31 36 39 39 39 39 39 43 44 45 47 48 45 45 44 43 42 41 39 39 41 42 44 47 47 46
42 40 39 33 29 24 24 25 21 20 23 30 30 26 29 34 34 39 40 40 41 41 40 40 40 42 45 44 46 46 46 45 44 41 40 39 38 40 42 43 44 43 43 43
32 41 40 31 28 23 34 32 29 30 33 35 33 32 33 32 27 35 39 39 38 39 41 40 40 41 44 46 50 47 44 44 42 40 39 41 41 41 41 41 41 41 40 37
31 37 34 29 32 34 35 33 29 22 37 38 36 34 33 31 35 42 39 39 39 39 38 39 40 40 44 48 47 43 42 42 43 42 40 39 40 40 39 39 37 35 37 37
33 35 37 35 30 30 37 30 33 42 41 37 34 34 37 38 37 36 37 38 37 36 35 34 36 39 41 41 42 41 41 43 41 41 39 38 38 37 35 35 36 36 36 36
31 34 38 36 37 43 43 42 41 39 35 34 38 38 36 34 34 34 35 35 35 36 36 32 33 35 38 39 42 41 40 39 39 38 37 35 35 34 35 35 36 34 35 35
36 37 34 37 39 38 37 37 35 35 36 37 36 35 35 34 34 34 34 32 30 30 31 32 32 34 38 39 37 38 37 37 35 34 34 33 34 34 34 32 32 32 33 33
34 36 36 37 36 34 32 36 36 38 37 35 35 34 32 31 29 27 26 28 30 31 33 35 35 35 34 34 34 35 35 35 32 33 32 32 32 30 30 30 32 32 34 35
32 33 30 37 38 36 37 36 38 37 36 35 32 27 26 26 27 29 29 31 34 34 34 33 33 33 32 33 33 33 34 33 32 30 30 29 30 30 30 31 33 35 35 36

GFSCGP_sfc_dewp_135.txt.gz
Dewpoint
21 15 15 18 19 15 14 18 26 35 37 37 38 37 39 37 39 40 38 36 36 33 41 46 47 48 49 53 55 61 61 66 70 73 72 71 71 71 70 71 70 71 71 72
18 15 18 19 19 17 12 20 30 31 33 36 37 37 35 37 32 38 37 36 35 32 38 42 50 52 54 51 55 56 55 59 65 70 71 70 69 68 70 69 70 72 72 71
17 18 17 17 17 15 12 23 27 29 32 32 28 27 25 26 26 28 37 37 35 34 35 46 50 52 53 55 55 54 56 61 61 64 68 68 69 68 68 68 69 72 69 68
18 15 12 12 13 11 9 14 23 23 22 25 26 17 25 25 25 26 26 36 34 33 41 48 51 52 58 62 63 64 65 65 62 67 67 67 68 65 65 67 68 71 69 67
14 12 11 11 11 11 11 16 20 22 18 19 18 16 18 25 26 26 31 35 34 33 45 48 50 56 61 63 64 66 66 66 67 66 68 69 67 68 69 68 69 69 70 63
11 12 12 11 12 12 13 17 25 20 16 16 17 17 17 25 24 26 29 35 35 41 47 50 53 55 59 61 62 63 61 62 61 60 61 61 61 66 67 64 64 67 67 70
10 10 11 10 9 12 11 24 30 22 14 18 20 18 18 25 25 25 28 37 41 42 44 49 50 51 52 56 57 58 58 57 59 59 60 60 59 61 62 63 63 60 61 64
11 9 10 10 10 8 10 27 28 21 16 14 16 15 17 21 26 26 32 38 38 40 42 46 47 48 50 53 53 54 55 54 54 57 56 57 57 58 59 61 62 61 61 60
16 12 13 12 14 13 14 18 25 26 27 22 27 28 32 26 26 27 37 38 39 41 41 45 47 49 50 50 52 53 52 51 53 52 54 52 55 55 55 55 57 57 59 59
24 19 25 14 16 17 19 19 17 25 21 27 32 34 29 30 32 34 37 38 42 42 42 43 47 49 50 49 49 50 50 50 49 50 49 51 50 51 52 53 52 54 55 56
22 30 26 23 16 16 20 22 27 25 22 33 33 36 41 42 37 37 39 41 40 39 39 41 46 47 49 50 48 47 45 44 48 46 47 48 49 48 50 51 52 53 53 54
27 33 32 26 26 27 21 23 28 32 28 36 37 35 46 46 45 39 39 38 38 39 37 38 42 41 42 43 46 45 44 42 44 44 45 47 49 49 49 51 52 53 52 52
32 33 34 29 28 31 30 25 25 32 37 34 35 37 44 44 45 43 39 39 39 37 35 36 37 38 40 40 39 41 42 43 45 44 44 45 48 48 48 48 49 49 50 49
44 39 35 32 33 35 32 27 30 35 33 31 33 39 44 47 47 45 43 40 40 38 38 37 36 38 38 39 40 42 42 44 44 44 44 45 47 47 47 48 49 49 50 50
37 38 41 41 41 37 37 32 33 31 32 32 35 40 42 45 47 47 44 41 33 32 33 37 37 38 39 41 41 42 43 43 44 44 44 44 44 45 45 45 46 47 48 48
43 39 40 41 38 38 33 34 32 28 29 33 33 36 39 44 42 30 27 32 32 32 33 37 39 41 40 41 42 44 44 43 43 43 43 43 43 43 43 43 44 44 45 46
41 40 38 34 37 33 28 28 29 28 29 31 30 34 35 31 30 31 34 38 38 39 39 40 41 42 42 43 43 43 43 43 43 43 43 43 42 41 40 41 43 44 43 42
40 40 39 36 36 28 28 24 25 25 28 28 25 30 34 37 38 39 40 40 40 41 40 40 41 41 42 42 43 43 43 43 43 43 42 41 40 40 41 40 40 40 40 39
39 42 37 34 33 26 24 32 29 32 34 35 33 33 33 36 37 38 39 39 39 39 39 39 40 39 40 41 41 44 43 43 43 41 40 40 40 39 39 38 38 38 38 38
40 39 37 37 31 26 34 33 31 38 34 38 35 33 33 34 35 38 39 39 39 39 39 38 38 39 40 44 44 42 41 42 41 40 39 39 38 38 37 37 37 36 34 34
40 38 33 32 34 35 37 34 32 29 35 36 36 37 37 37 39 39 39 38 38 37 38 38 38 39 39 40 40 41 39 38 39 39 38 37 37 36 35 35 34 33 35 37
34 34 32 32 31 33 42 42 39 41 38 38 38 38 35 35 35 35 37 37 36 33 31 31 32 35 38 38 37 37 36 37 37 37 36 35 35 33 32 34 35 35 34 35
32 35 34 35 38 42 42 42 40 39 38 38 37 36 36 35 35 34 32 30 30 31 34 34 35 35 36 34 35 34 34 36 35 33 32 32 32 31 34 35 34 33 32 33
38 40 40 37 39 37 39 39 39 39 37 37 36 34 33 30 28 28 29 31 33 34 34 33 33 33 33 33 33 33 33 35 33 31 30 30 31 32 33 30 30 31 31 31
38 38 37 37 35 36 37 38 38 38 36 34 31 28 28 28 29 30 32 33 33 32 32 32 32 32 32 32 32 32 32 33 31 29 29 30 30 29 30 30 31 31 32 34
38 38 38 37 38 37 37 38 39 36 33 29 28 29 30 30 31 33 33 33 33 32 31 31 32 32 31 31 31 30 31 31 28 28 29 29 30 30 30 30 31 33 34 35

GFSCGP_sfc_dewp_138.txt.gz
Dewpoint
28 18 15 15 18 20 17 16 17 32 33 35 37 38 39 38 39 38 39 40 37 37 39 47 58 61 62 62 61 59 61 62 65 68 72 71 71 71 71 72 71 72 72 71
19 17 16 17 20 20 19 15 17 24 36 37 38 38 39 39 38 37 37 40 37 38 40 50 51 52 52 56 60 59 59 60 62 66 71 71 71 71 71 70 70 71 71 72
16 17 18 17 18 19 18 17 16 30 32 34 38 37 37 37 36 34 35 38 38 37 34 49 51 53 56 56 56 57 57 59 60 65 69 68 69 68 67 67 68 70 72 71
19 18 16 16 17 18 16 17 16 28 28 30 32 28 29 31 26 26 27 28 36 36 40 49 55 61 62 63 65 65 66 66 66 67 65 66 66 65 66 67 69 70 69 66
19 18 17 16 17 17 16 16 15 21 23 27 26 22 19 28 27 25 25 26 32 36 49 52 60 62 63 63 61 61 60 59 60 61 63 64 65 67 64 63 65 67 67 64
20 18 17 14 13 14 15 14 28 22 18 22 23 25 21 23 23 24 27 28 32 39 50 57 60 60 60 59 58 57 58 58 59 59 59 60 61 61 61 61 60 61 63 66
18 18 14 14 12 14 14 19 25 22 21 25 21 18 18 22 24 25 26 32 37 48 52 52 55 57 56 55 55 54 54 55 56 56 56 56 56 58 58 60 60 59 59 60
13 10 11 13 11 9 13 25 25 18 18 15 20 19 19 22 24 27 32 39 44 49 49 49 50 51 52 52 53 53 53 52 52 53 52 54 54 54 55 56 57 57 58 58
15 13 15 12 12 10 18 20 23 25 29 21 28 31 33 39 34 31 38 41 45 47 47 47 49 50 52 51 51 51 50 51 50 49 49 50 49 49 51 51 53 54 55 55
19 14 21 18 12 14 13 22 25 31 20 20 31 33 31 38 41 32 36 39 40 44 46 47 48 49 50 51 52 50 50 48 48 47 48 47 47 48 50 50 51 51 52 53
20 26 25 25 21 13 18 22 25 25 27 26 27 32 42 41 43 37 37 39 40 41 45 47 47 49 48 48 47 45 45 47 45 46 46 48 48 48 48 49 49 50 49 50
26 29 26 25 29 22 21 19 25 28 30 36 35 34 47 46 46 42 39 39 39 39 41 45 46 48 48 47 45 43 42 44 43 44 44 45 47 47 46 46 46 47 47 48
28 31 29 26 27 28 25 25 27 32 36 36 33 36 48 49 48 48 47 40 38 37 40 41 41 46 46 45 44 43 43 43 43 43 43 44 45 45 45 45 46 46 47 47
43 37 29 28 30 36 34 33 34 32 32 37 36 38 45 47 47 50 50 49 41 36 37 37 37 39 39 39 41 42 43 43 43 44 43 43 43 43 43 44 44 45 47 47
38 36 39 40 41 39 36 34 32 32 35 31 39 40 44 47 48 49 51 52 46 34 36 36 38 39 40 41 42 43 43 43 43 42 41 42 43 42 43 42 43 45 45 45
41 38 40 39 36 38 34 35 34 33 33 36 38 36 43 47 48 46 47 51 45 38 40 40 40 41 41 42 43 43 42 42 42 42 41 42 42 42 42 43 43 42 42 41
39 38 35 34 39 34 32 34 27 31 32 32 31 34 43 43 43 42 42 38 38 39 39 40 40 40 41 42 42 42 41 42 42 42 42 42 41 41 41 41 40 40 40 40
37 38 37 35 33 27 30 31 29 34 34 33 35 39 38 38 39 38 38 38 38 38 38 39 38 38 40 41 41 43 44 44 43 40 40 40 39 39 39 38 38 38 38 38
37 39 36 33 29 27 28 32 31 32 33 34 37 37 37 37 36 36 39 39 38 38 38 37 38 40 40 42 42 41 41 40 40 39 38 38 37 36 36 35 36 37 36 34
40 38 37 34 28 23 32 33 36 36 32 36 37 36 36 36 33 35 37 37 36 32 33 37 38 38 38 40 39 38 37 38 38 38 37 37 36 35 34 35 34 33 33 33
38 37 33 34 30 34 40 42 41 28 33 38 37 36 34 34 36 37 32 32 32 33 34 37 37 36 36 36 36 35 35 36 37 36 34 34 34 33 31 31 31 33 35 36
35 32 33 35 33 29 42 41 36 38 38 36 36 35 34 32 32 30 31 33 34 34 34 34 35 35 34 35 34 34 33 35 36 35 33 32 31 30 30 31 34 34 33 32
32 33 35 34 36 41 41 39 39 37 35 34 32 33 29 28 29 32 33 33 33 33 33 33 32 32 33 33 34 32 32 34 33 32 30 29 29 30 32 33 31 30 30 31
39 40 38 37 38 37 37 37 36 34 31 29 28 28 29 29 33 33 32 32 32 31 32 32 32 31 31 32 31 31 31 32 31 28 27 28 29 31 30 30 30 30 30 31
38 38 36 36 36 36 36 35 32 30 29 29 29 29 31 32 33 32 32 32 31 31 31 32 31 31 31 29 30 29 29 30 28 27 28 30 29 29 29 30 31 31 31 33
38 36 34 34 35 36 36 34 30 29 29 30 31 32 32 32 32 32 32 32 32 31 31 31 32 30 29 28 27 27 28 28 28 28 29 29 29 30 30 30 31 33 34 35

GFSCGP_sfc_dewp_141.txt.gz
Dewpoint
30 18 15 17 18 19 16 17 18 23 21 36 37 37 38 38 38 38 38 40 41 37 49 64 64 65 66 64 65 65 64 63 62 64 66 70 71 70 71 71 70 69 70 69
25 19 17 17 18 18 20 16 17 21 34 33 33 36 39 39 38 38 38 39 40 38 45 52 61 63 63 63 63 62 62 62 61 62 63 68 71 71 71 70 70 71 71 71
23 21 21 17 19 17 19 18 19 25 30 37 37 37 39 39 37 38 37 38 39 38 44 49 52 57 58 60 61 61 59 59 59 60 66 68 69 68 67 67 68 69 70 71
19 18 19 16 16 19 17 19 17 21 28 25 34 25 30 38 36 33 34 35 37 38 37 50 55 57 57 59 59 60 61 63 65 66 64 65 65 64 65 65 66 67 66 67
20 16 16 15 17 19 18 18 17 18 25 27 26 28 28 29 36 35 30 29 30 35 43 54 60 62 64 63 61 59 59 59 60 61 62 64 62 62 61 61 61 62 64 65
20 19 18 17 17 19 20 16 23 22 19 21 23 27 27 26 28 34 32 28 27 38 53 60 62 62 60 59 57 57 56 57 57 58 60 59 59 59 59 59 59 59 60 60
20 20 17 17 15 16 15 14 19 16 21 22 26 21 25 28 26 28 28 28 33 53 59 60 60 59 56 55 54 55 54 53 54 55 55 55 55 55 55 55 55 56 57 57
17 13 18 15 14 11 15 17 20 16 19 18 22 20 20 34 41 31 26 29 45 56 58 58 57 55 54 53 53 52 51 51 50 51 50 51 52 52 52 53 53 53 54 55
16 14 16 15 13 11 18 17 20 21 26 20 22 28 32 40 40 43 34 40 50 54 55 55 53 53 52 52 52 51 50 48 48 48 48 48 48 49 49 50 51 51 51 52
20 13 14 14 13 14 17 23 23 29 21 19 26 32 26 39 40 43 39 42 50 50 50 50 51 51 51 51 50 49 49 47 46 47 46 47 48 48 48 48 48 48 48 49
18 22 20 23 13 13 17 21 25 25 23 22 23 28 39 40 41 44 37 43 48 47 47 48 49 50 50 50 49 49 48 46 45 45 46 46 46 46 46 45 45 46 46 46
21 24 21 21 26 20 18 22 25 25 26 31 29 26 45 44 46 47 39 41 42 46 47 47 48 48 48 46 44 44 46 44 44 44 45 46 46 44 44 44 44 45 45 46
28 27 25 22 25 28 28 25 28 32 35 32 27 29 47 48 46 47 44 45 39 43 46 46 48 48 47 45 43 42 43 43 43 43 44 44 44 43 43 43 43 44 46 46
36 33 26 24 25 34 34 34 33 31 31 34 34 36 45 46 46 46 48 49 46 39 43 42 44 45 43 43 42 42 43 43 43 43 43 42 42 42 42 42 44 45 45 44
34 31 35 39 39 37 36 34 32 31 35 30 34 36 43 46 46 48 50 50 42 37 37 38 39 40 41 42 42 43 43 43 43 41 41 41 42 42 42 43 43 42 41 41
39 36 38 37 38 37 34 33 33 34 35 39 39 39 46 49 50 49 50 48 42 39 39 40 40 41 41 43 43 42 41 41 41 42 42 42 41 41 41 40 40 39 39 39
38 36 33 32 38 32 30 33 28 32 32 37 35 38 46 46 46 47 48 48 46 44 39 39 40 40 41 41 42 42 43 43 41 40 40 39 39 39 38 38 37 36 37 37
37 36 34 32 31 26 33 35 34 33 34 37 43 44 42 39 38 38 39 38 40 38 37 38 39 40 41 41 41 41 41 40 39 39 38 37 36 35 35 34 35 35 35 34
38 37 33 29 26 27 30 33 33 31 33 37 38 37 37 37 36 36 38 36 35 37 38 37 37 38 38 37 38 38 37 38 37 36 35 35 35 33 33 32 32 31 31 31
39 37 34 29 25 22 30 36 34 33 30 37 37 36 35 35 33 34 32 32 35 37 37 36 35 35 35 35 35 34 35 35 35 35 34 33 33 32 31 30 30 30 31 32
35 34 31 30 27 33 37 42 41 26 30 38 37 35 35 35 35 33 33 34 34 35 36 35 34 33 34 34 33 32 33 33 35 34 32 31 31 31 29 29 30 31 33 34
33 31 29 32 29 27 41 40 31 36 37 36 35 32 30 30 32 34 33 33 33 32 32 33 33 32 32 34 32 31 31 33 33 32 31 29 28 28 29 29 32 32 30 30
32 33 34 34 34 38 39 38 38 36 35 32 29 29 30 32 33 33 32 32 32 32 32 32 32 31 32 32 31 30 30 29 31 29 27 26 27 29 30 30 30 30 30 31
39 40 35 35 36 35 35 34 33 32 30 29 29 31 32 32 32 32 32 31 31 31 31 31 31 31 30 29 28 29 28 29 28 27 27 28 29 30 30 30 30 30 30 30
38 38 35 35 35 32 31 29 29 30 30 31 32 33 33 32 32 32 31 31 31 30 31 31 30 28 28 26 27 27 28 28 27 27 28 29 29 29 30 30 31 31 31 33
37 35 34 34 34 32 31 30 31 31 32 32 32 32 33 32 32 32 31 31 30 30 29 27 28 28 26 27 28 28 29 29 28 29 29 29 30 30 30 30 31 33 35 35

GFSCGP_sfc_dewp_144.txt.gz
Dewpoint
29 18 18 20 18 18 18 15 17 20 26 29 33 36 37 39 39 38 37 40 41 41 39 63 65 66 67 66 65 65 64 64 64 64 64 68 70 71 71 71 71 69 69 69
23 17 15 18 18 19 18 18 17 20 24 29 35 36 38 39 38 38 38 39 40 40 41 59 63 64 65 64 64 64 64 63 63 62 63 64 67 70 71 71 71 71 72 72
23 21 17 17 17 17 18 16 17 20 30 36 32 33 36 38 40 39 39 40 41 39 42 52 58 61 62 63 62 62 62 61 61 61 62 66 69 68 67 67 67 67 67 68
23 21 18 17 17 17 16 19 18 19 26 25 33 25 31 37 38 39 37 37 38 39 44 50 53 56 57 58 59 60 62 63 63 66 65 65 64 63 63 63 62 61 61 63
24 18 19 16 16 18 17 21 19 20 22 25 28 27 27 33 36 38 39 35 37 39 40 50 54 58 61 62 60 60 60 60 61 62 62 61 60 61 61 60 58 59 59 59
21 20 18 17 19 18 20 18 22 21 20 16 18 28 26 27 30 34 37 38 33 34 43 58 61 61 59 58 57 56 56 56 58 58 59 58 56 56 55 55 55 56 58 58
20 18 18 18 16 19 17 15 17 14 17 17 24 23 24 28 31 30 31 34 30 43 57 60 60 59 56 56 55 54 54 54 54 55 55 54 54 54 54 54 54 53 54 55
17 15 16 16 16 14 15 15 17 13 18 18 24 21 22 34 42 43 38 29 38 54 59 60 60 57 55 54 53 53 52 52 52 52 52 52 52 52 52 53 53 53 53 54
17 15 18 15 14 14 17 14 17 20 23 18 20 24 31 39 40 43 41 33 47 56 59 59 57 56 54 53 52 51 50 50 50 49 50 51 51 50 50 51 51 50 51 51
18 13 15 15 13 15 16 19 17 24 19 18 23 31 25 37 39 43 42 38 50 58 58 57 55 54 53 53 52 51 49 49 49 48 49 49 50 50 50 49 49 49 49 49
18 20 21 13 12 11 20 23 23 21 22 20 20 25 36 39 41 44 41 41 51 56 56 54 53 52 52 51 50 50 48 47 47 48 48 48 48 49 48 47 48 48 48 48
20 22 19 19 26 16 16 22 24 24 23 27 27 25 42 43 44 45 39 46 49 51 51 51 51 51 51 50 49 49 48 47 46 48 47 47 47 47 47 46 47 47 48 49
24 20 21 23 26 31 19 24 25 29 33 31 25 26 45 47 45 47 42 42 46 47 49 49 50 50 48 46 45 46 46 44 44 45 46 47 46 45 45 45 46 47 47 45
34 29 23 23 23 31 32 31 31 28 28 31 29 33 42 44 44 47 48 45 44 48 46 46 47 46 46 45 43 44 44 44 45 45 44 44 44 44 44 45 45 44 43 42
26 19 34 37 37 36 34 32 31 29 30 26 30 33 39 44 46 48 46 44 42 40 41 44 42 44 42 43 44 44 44 44 44 43 43 43 43 43 42 42 42 41 41 40
37 34 36 36 37 37 31 33 34 35 36 39 37 37 45 49 49 47 43 41 40 42 40 41 41 42 43 43 43 43 43 42 42 41 40 40 40 40 39 39 39 39 38 38
36 36 31 31 37 34 31 32 32 33 34 38 34 37 48 47 47 47 42 42 42 42 40 40 40 40 41 41 41 40 41 41 40 39 38 37 37 36 36 36 36 36 36 35
35 33 32 31 31 25 30 38 35 35 36 41 44 43 40 38 40 40 44 46 42 41 40 39 38 37 36 37 38 38 38 38 38 36 35 35 34 34 34 34 33 33 32 32
38 35 31 29 27 28 32 34 33 31 35 39 38 37 36 37 36 35 35 38 39 39 38 36 35 35 35 35 35 35 35 35 35 35 34 33 32 32 31 31 30 30 30 31
39 36 33 27 24 22 28 36 36 35 31 39 38 36 36 37 35 31 34 36 35 35 34 34 34 34 33 33 34 32 32 33 33 33 32 31 31 30 29 29 29 29 31 32
33 33 29 28 25 30 35 39 40 28 30 38 37 36 36 34 33 33 34 33 34 34 34 33 32 32 33 33 31 30 31 30 32 32 31 29 29 29 29 29 29 30 33 33
32 29 28 29 26 25 41 37 30 35 37 37 35 32 32 33 33 33 32 32 32 31 31 31 31 32 31 31 31 29 28 30 29 30 29 28 27 27 28 30 31 31 31 31
32 33 34 32 32 37 39 38 39 38 35 31 31 32 33 32 32 31 31 31 31 31 31 31 31 31 30 29 28 27 27 28 29 28 27 27 28 30 31 31 30 30 31 31
39 38 35 34 35 33 34 34 33 31 30 31 33 33 32 31 31 31 31 30 30 31 30 30 29 28 27 27 27 27 28 29 28 27 27 29 30 31 30 30 30 31 31 31
38 37 35 32 31 30 29 30 31 32 33 33 33 32 32 31 31 31 30 30 30 30 29 28 28 27 27 27 27 27 28 28 27 28 30 30 30 30 30 30 31 32 33 33
39 35 36 34 32 31 29 31 33 33 33 33 32 32 32 31 31 31 29 30 29 27 27 27 28 27 27 27 28 28 30 31 31 31 30 30 31 30 31 31 32 33 34 35